Tulsa, OK

10:24 AM CDT on October 19, 2017 (GMT -0500)
Tulsa International

Weather History for KTUL - September, 2012

Change the Weather History Date:

Thursday, September 20, 2012

  Actual Average Record
Temperature  
Mean Temperature 75 °F 71 °F  
Max Temperature 86 °F 82 °F 102 °F (1954)
Min Temperature 64 °F 60 °F 39 °F (1938)
Degree Days  
Heating Degree Days 0 1  
Month to date heating degree days 5 6  
Since 1 July heating degree days 5 6  
Cooling Degree Days 10 7  
Month to date cooling degree days 256 208  
Year to date cooling degree days 2526 1909  
Growing Degree Days 25 (Base 50)    
Moisture  
Dew Point 55 °F    
Average Humidity 53    
Maximum Humidity 68    
Minimum Humidity 37    
Precipitation  
Precipitation 0.00 in 0.15 in 1.98 in (1915)
Month to date precipitation 0.87 2.85  
Year to date precipitation 23.12 30.33  
Sea Level Pressure  
Sea Level Pressure 29.95 in    
Wind  
Wind Speed 6 mph (SSE)    
Max Wind Speed 17 mph    
Max Gust Speed 21 mph    
Visibility 10 miles    
Events      
T = Trace of Precipitation, MM = Missing Value Source: NWS Daily Summary

Daily Weather History Graph

Daily Weather History Graph

Search for Another Location

Airport or City:

Trip Planner

Search our weather history database for the weather conditions in past years. The results will help you decide how hot, cold, wet, or windy it might be!

Date:

Astronomy

Sep. 20, 2012 Rise Set
Actual Time 7:10 AM CDT 7:22 PM CDT
Civil Twilight 6:44 AM CDT 7:48 PM CDT
Nautical Twilight 6:14 AM CDT 8:18 PM CDT
Astronomical Twilight 5:44 AM CDT 8:48 PM CDT
Moon 12:19 PM CDT (9/20) 10:36 PM CDT (9/20)
Length of Visible Light 13h 03m
Length of Day
12h 12m
Waxing Crescent, 27% of the Moon is Illuminated
Sep 20
Waxing Crescent
Sep 22
First Quarter
Sep 29
Full
Oct 8
Last Quarter
Oct 15
New

Hourly Weather History & Observations

Time (CDT) Temp. Heat Index Dew Point Humidity Pressure Visibility Wind Dir Wind Speed Gust Speed Precip Events Conditions
12:53 AM 71.1 °F - 48.9 °F 45% 29.94 in 10.0 mi South 12.7 mph - N/A   Clear
1:53 AM 69.1 °F - 48.9 °F 49% 29.97 in 10.0 mi South 8.1 mph - N/A   Clear
2:53 AM 68.0 °F - 48.9 °F 50% 29.97 in 10.0 mi South 5.8 mph - N/A   Clear
3:53 AM 68.0 °F - 50.0 °F 52% 29.96 in 10.0 mi South 9.2 mph - N/A   Clear
4:53 AM 68.0 °F - 50.0 °F 52% 29.99 in 10.0 mi SW 6.9 mph - N/A   Clear
5:53 AM 64.0 °F - 51.1 °F 63% 29.98 in 10.0 mi South 5.8 mph - N/A   Clear
6:53 AM 64.9 °F - 51.1 °F 61% 29.98 in 10.0 mi South 8.1 mph - N/A   Clear
7:53 AM 66.0 °F - 52.0 °F 60% 29.98 in 10.0 mi South 15.0 mph - N/A   Clear
8:53 AM 69.1 °F - 52.0 °F 54% 30.00 in 10.0 mi SW 5.8 mph - N/A   Clear
9:53 AM 72.0 °F - 53.1 °F 51% 29.99 in 10.0 mi SSW 9.2 mph - N/A   Clear
10:53 AM 75.0 °F - 53.1 °F 46% 29.99 in 10.0 mi SW 6.9 mph - N/A   Clear
11:53 AM 78.1 °F - 55.0 °F 45% 29.99 in 10.0 mi Variable 5.8 mph - N/A   Clear
12:53 PM 81.0 °F 80.8 °F 55.9 °F 42% 29.97 in 10.0 mi Calm Calm - N/A   Partly Cloudy
1:53 PM 82.9 °F 82.4 °F 57.0 °F 41% 29.96 in 10.0 mi Calm Calm - N/A   Partly Cloudy
2:53 PM 86.0 °F 85.0 °F 57.9 °F 38% 29.93 in 10.0 mi Variable 3.5 mph - N/A   Partly Cloudy
3:53 PM 84.9 °F 84.2 °F 57.9 °F 40% 29.92 in 10.0 mi SSE 6.9 mph - N/A   Partly Cloudy
4:53 PM 84.9 °F 84.4 °F 59.0 °F 41% 29.90 in 10.0 mi NE 5.8 mph - N/A   Clear
5:53 PM 84.0 °F 83.8 °F 59.0 °F 43% 29.90 in 10.0 mi ENE 8.1 mph - N/A   Clear
6:53 PM 82.0 °F 82.4 °F 60.1 °F 47% 29.90 in 10.0 mi ENE 9.2 mph - N/A   Clear
7:53 PM 78.1 °F - 60.1 °F 54% 29.89 in 10.0 mi East 6.9 mph - N/A   Clear
8:53 PM 75.9 °F - 60.1 °F 58% 29.90 in 10.0 mi ENE 5.8 mph - N/A   Clear
9:53 PM 73.9 °F - 59.0 °F 59% 29.91 in 10.0 mi ENE 3.5 mph - N/A   Clear
10:53 PM 73.4 °F - 59.0 °F 61% 29.91 in 10.0 mi ENE 3.5 mph - N/A   Clear
11:53 PM 71.1 °F - 60.1 °F 68% 29.89 in 10.0 mi Calm Calm - N/A   Clear